Overview Statistics Trail Chart Weather Telemetry Raw packets
 

This is the latest recevied weather packets stored in our database for station/object WW5JC. If no packets are shown the sender has not sent any weather packets the latest 10 day(s).

<< 96 97 98 99 100 101 102 >>
Time Temp. Humidity Pressure Rain* Wind** Luminosity Snow
1787909254 22.22° C 90% 1018.9 hPa 0 mm - 0 W/m² -
1787908949 22.78° C 90% 1018.9 hPa 0 mm - 0 W/m² -
1787908648 22.22° C 90% 1018.6 hPa 0 mm - 0 W/m² -
1787908348 22.22° C 90% 1018.7 hPa 0 mm - 0 W/m² -
1787908047 22.78° C 89% 1018.7 hPa 0 mm - 0 W/m² -
1787907743 22.78° C 89% 1018.6 hPa 0 mm - 0 W/m² -
1787907439 22.78° C 89% 1018.7 hPa 0 mm - 0 W/m² -
1787907134 22.78° C 88% 1018.5 hPa 0 mm - 0 W/m² -
1787906830 22.78° C 87% 1018.6 hPa 0 mm - 0 W/m² -
1787906526 22.78° C 87% 1018.6 hPa 0 mm - 0 W/m² -
1787906225 23.33° C 87% 1018.5 hPa 0 mm - 0 W/m² -
1787905921 23.33° C 87% 1018.5 hPa 0 mm - 0 W/m² -
1787905616 23.33° C 86% 1018.5 hPa 0 mm - 0 W/m² -
1787905312 23.33° C 86% 1018.7 hPa 0 mm - 0 W/m² -
1787905011 23.33° C 85% 1018.5 hPa 0 mm - 0 W/m² -
1787904708 23.89° C 84% 1018.6 hPa 0 mm - 0 W/m² -
1787904408 23.89° C 84% 1018.5 hPa 0 mm - 0 W/m² -
1787904103 24.44° C 83% 1018.5 hPa 0 mm - 0 W/m² -
1787903798 24.44° C 82% 1018.4 hPa 0 mm - 0 W/m² -
1787903494 25° C 80% 1018.6 hPa 0 mm - 0 W/m² -
1787903189 25° C 80% 1018.6 hPa 0 mm - 0 W/m² -
1787902886 25° C 80% 1018.8 hPa 0 mm - 0 W/m² -
1787902582 24.44° C 81% 1018.6 hPa 0 mm - 0 W/m² -
1787902277 23.89° C 83% 1018.6 hPa 0 mm - 0 W/m² -
1787901973 23.33° C 85% 1018.7 hPa 0 mm - 0 W/m² -

* Rain latest hour (hover to see other rain measurements)
** Current wind speed in m/s (hover to see current wind gust speed)